www.pogodaiklimat.ru

Погода и климат >> Архив погоды >> Мексика >> Piedras Negras


ПОГОДА в Piedras Negras

  • Прогноз погоды в Piedras Negras
  • Монитор погоды в Piedras Negras
  • Климат города

АРХИВ ПОГОДЫ в Piedras Negras

Время (UTC), дата Ветер
(напр.,м/с)
 
Видим.   Явления Облачность Т
(С)
Тd
(С)
f
(%)
Тe
(С)
Тes
(С)
Комфортность P
(гПа)
Po
(гПа)
Тmin
(С)
Tmax
(С)
R
(мм)
R24
(мм)
S
(см)
21 8.12 СЗ 2 24 км ясно +13.8 -6.5 24 +14 +19 1023.3 992.7
00 9.12 СЗ 2 22 км ясно +12.2 -4.9 30 +12 +12 1023.5 993.2 +0.2 +14.6
03 9.12 З 2 20 км ясно +8.4 -1.1 51 +7 +7 1023.3 993.2
06 9.12 З 3 20 км ясно +5.8 +1.0 71 +3 +3 1024.9 994.7 +0.2 +14.6
15 9.12 СЗ 1 24 км ясно +6.8 +2.6 75 +6 +8 1030.8 999.6
18 9.12 СЗ 1 24 км ясно +16.6 +1.3 36 +18 +27 1030.4 999.8 +3.8 +17.4
21 9.12 СЗ 2 24 км ясно +21.0 +0.4 25 +22 +27 комфорт 1027.3 996.8
00 10.12 СЗ 2 24 км ясно +18.8 +2.0 33 +20 +20 1026.5 996.7 +3.8 +22.0
03 10.12 З 1 20 км ясно +12.4 +2.7 52 +13 +13 1026.3 996.7
06 10.12 СЗ 2 20 км ясно +8.2 +1.8 64 +7 +7 1028.3 998.6 +3.8 +22.0
09 10.12 СЗ 2 20 км ясно +8.2 +1.8 64 +7 +7 1028.3 998.6 +3.8 +22.0
12 10.12 ЮЗ 1 20 км ясно +5.0 +0.5 73 +4 +4 1031.4 1000.9 +3.2 +22.0
15 10.12 СЗ 1 22 км 8/0
[Cs]
+5.0 +3.3 89 +4 +5 1033.1 1002.3
18 10.12 З 1 24 км 8/0
[Cs]
+13.6 +6.6 63 +14 +22 1033.7 1002.9 +3.2 +14.4
21 10.12 С 1 24 км 6/0
[Cs]
+20.0 +2.8 32 +21 +27 комфорт 1029.8 999.4
00 11.12 С 1 24 км 5/0
[Cs]
+18.0 +5.0 42 +19 +19 1029.4 999.4 +3.2 +21.0
03 11.12 ЮЗ 1 20 км ясно +12.2 +4.4 59 +12 +12 1030.1 1000.3
15 11.12 СЗ 1 23 км 5/5 480 м
[Sc diur, vesp]
+7.0 +3.7 79 +6 +7 1030.0 999.0
18 11.12 СЗ 1 24 км 4/4 480 м
[Sc diur, vesp]
+16.6 +4.0 43 +18 +23 1028.9 998.3 +3.8 +17.4
21 11.12 ЮЗ 1 24 км 8/8 500 м
[Sc diur, vesp]
+19.0 +6.0 43 +21 +22 комфорт 1024.7 994.6
00 12.12 ЮВ 1 22 км 8/8 300 м
[Sc diur, vesp]
+16.8 +6.2 50 +18 +18 1023.5 993.8 +3.8 +21.2
03 12.12 З 1 20 км 10/10 480 м
[Sc diur, vesp]
+13.2 +8.6 74 +13 +13 1023.5 994.0
06 12.12 С 1 20 км 10/10 480 м
[Sc diur, vesp]
+11.6 +9.8 89 +11 +11 1023.6 994.0 +3.8 +21.2
15 12.12 С 2 24 км ясно +8.6 +5.5 81 +7 +8 1031.7 1001.1
18 12.12 С 1 24 км ясно +17.4 -2.4 26 +19 +28 1032.1 1001.7 +5.8 +18.2
21 12.12 С 1 24 км ясно +18.4 -3.3 23 +20 +25 1027.6 997.5
00 13.12 СЗ 1 22 км ясно +15.4 0.0 35 +16 +16 1025.9 996.1 +5.8 +20.4
03 13.12 Ю 1 20 км ясно +11.4 +1.9 52 +12 +12 1023.6 994.1
18 13.12 З 1 22 км 9/0
[Ac trans]
+11.2 +2.2 54 +11 +16 1022.7 992.3 +4.8 +12.2
00 14.12 штиль 0 22 км 10/10 300 м
[Sc diur, vesp]
+13.8 +6.0 59 +14 +14 1017.0 987.1 +4.8 +15.6
03 14.12 штиль 0 20 км ясно +10.6 +6.5 76 +10 +10 1015.9 986.2
06 14.12 Ю 1 20 км ясно +8.8 +5.7 81 +8 +8 1015.8 986.1 +4.8 +15.6
15 14.12 С 1 22 км 9/0 2000 м
[Ac trans]
+7.6 +6.5 93 +7 +7 1016.6 986.3
18 14.12 СЗ 1 23 км 8/0 2000 м
[Ac trans]
+14.2 +6.5 60 +15 +20 1017.0 986.9 +6.8 +15.4
21 14.12 СЗ 1 23 км 9/0 300 м
[Ac trans]
+17.6 +6.0 46 +19 +21 1015.4 985.5
00 15.12 СЗ 1 22 км 10/0 300 м
[Ac trans]
+15.2 +7.7 61 +16 +16 1015.6 985.9 +6.8 +18.8
03 15.12 С 1 20 км 10/10 480 м
[Frnb]
+14.0 +7.5 65 +14 +14 1017.2 987.7
06 15.12 З 1 20 км 10/10 480 м
[Frnb]
+13.0 +5.9 62 +13 +13 1018.7 989.1 +6.8 +18.8
15 15.12 СЗ 1 22 км 10/10 300 м
[Frnb]
+10.4 +5.8 73 +10 +10 1029.2 998.4 0.2
18 15.12 С 2 22 км 10/10 200 м
[Frnb]
+13.0 +2.0 47 +13 +13 1028.8 998.6 0.2

 

Местоположение метеостанции Piedras Negras (Мексика): широта 28.70 долгота -100.50 высота над уровнем моря 250 м.

В архиве по умолчанию представлена погода в Piedras Negras за последнюю неделю. Архивные данные за месяц целиком и за предыдущие месяцы, начиная с января 2011 года, Вы можете получить, выбрав интересующий диапазон дат из раскрывающегося списка и нажав кнопку "Ввод!".

Внимание! Время в таблицах - всемирное. Для получения местного времени необходимо прибавить поправку, которая в Piedras Negras равна -7 ч.

Смотрите также архив погоды в соседних городах и на ближайших метеорологических станциях:

Погода в Monclova (Мексика) (221 км)
Погода в Monterrey (Мексика) (331 км)
Погода в Saltillo (Мексика) (374 км)
Погода в Torreon (Мексика) (455 км)
Погода в Chihuahua University (Мексика) (537 км)
Погода в Hidalgo del Parral (Мексика) (539 км)
Погода в Chihuahua (Мексика) (544 км)
Погода в Ciudad Victoria (Мексика) (569 км)
Погода в Soto La Marina (Мексика) (594 км)
Погода в Tepehuanes (Мексика) (638 км)

Пояснения к столбцам:

Ветер - указаны скорость ветра в м/с - средняя за 10 мин, порывы в срок и между сроками (в фигурных скобках) и направление, откуда дует ветер: С - северный, СВ - северо-восточный, В - восточный, ЮВ - юго-восточный, Ю - южный, ЮЗ - юго-западный, З - западный, СЗ - северо-западный.
Видимость - горизонтальная дальность видимости в метрах или километрах. При видимости от 1 до 10 км при отсутствии осадков обычно наблюдается дымка, при ухудшении видимости до 1 км и менее - туман. В сухую погоду видимость может ухудшаться дымом, пылью или мглою.
Явления - указаны атмосферные явления, наблюдавшиеся в срок или в последний час перед сроком; фигурными скобками обозначены явления, наблюдавшиеся между сроками (за 1-3 часа до срока); квадратными скобками обозначены град или гололедные отложения с указанием их диаметра в мм.
Облачность - указаны через наклонную черту общая и нижняя облачность в баллах и высота нижней границы облаков в метрах; квадратными скобками обозначены формы облаков: Ci - перистые, Cs - перисто-слоистые, Cc - перисто-кучевые, Ac - высококучевые, As - высокослоистые, Sc - слоисто-кучевые, Ns - слоисто-дождевые, Cu - кучевые, Cb - кучево-дождевые. Подробнее классификацию облаков см. в Атласе облаков (PDF).
T - Температура воздуха - температура, измеренная на высоте 2 м над землей.
Td - Температура точки росы - температура, при понижении до которой содержащийся в воздухе водяной пар достигнет насыщения.
f - Относительная влажность воздуха - влажноcть воздуха, измеренная на высоте 2 м над землей.
Te - Эффективная температура - температура, которую ощущает одетый по сезону человек в тени. Характеристика душности погоды. При расчете учитывается влияние влажности воздуха и скорости ветра на теплоощущения человека.
Tes - Эффективная температура на солнце - температура, которую ощущает человек, с поправкой на солнечный нагрев. Характеристика знойности погоды. Зависит от высоты солнца над горизонтом, облачности и скорости ветра. Ночью, в пасмурную погоду, а также при ветре 12 м/с и более поправка равна нулю.
P - Атмосферное давление - приведенное к уровню моря атмосферное давление.
Po - Атмосферное давление - измеренное на уровне метеостанции атмосферное давление.
Tmin - Минимальная температура - минимум температуры воздуха на высоте 2 м над землей.
Tmax - Максимальная температура - максимум температуры воздуха на высоте 2 м над землей.
R - Количество осадков - Количество выпавших осадков за период времени, мм. При наведении курсора мыши на число - период времени, за который выпало указанное количество осадков.
R24 - Количество осадков - Количество выпавших осадков за 24 часа, мм.
S - Снежный покров - Высота снежного покрова, см. При наведении курсора мыши на число - состояние снежного покрова и степень покрытия местности в баллах.